Eagle Creek, IN

3:53 AM EDT on April 28, 2017 (GMT -0400)
Eagle Creek

Weather History for KEYE - December, 2013

Change the Weather History Date:

Monday, December 9, 2013

  Actual Average Record
Temperature  
Mean Temperature 25 °F 34 °F  
Max Temperature 29 °F 40 °F 64 °F (2008)
Min Temperature 20 °F 27 °F 8 °F (2010)
Degree Days  
Heating Degree Days 40 31  
Month to date heating degree days 275 268  
Since 1 July heating degree days 1453 1292  
Cooling Degree Days 0 0  
Month to date cooling degree days 0 0  
Year to date cooling degree days 1006 1058  
Moisture  
Dew Point 19 °F    
Average Humidity 80    
Maximum Humidity 92    
Minimum Humidity 68    
Precipitation  
Precipitation T in 0.08 in 1.11 in (2008)
Month to date precipitation 0.26 0.79  
Year to date precipitation 38.44 38.50  
Sea Level Pressure  
Sea Level Pressure 30.14 in    
Wind  
Wind Speed 10 mph (West)    
Max Wind Speed 20 mph    
Max Gust Speed 27 mph    
Visibility 7 miles    
Events Snow    
T = Trace of Precipitation, MM = Missing Value Source: NWS Daily Summary

Daily Weather History Graph

Daily Weather History Graph

Search for Another Location

Airport or City:

Trip Planner

Search our weather history database for the weather conditions in past years. The results will help you decide how hot, cold, wet, or windy it might be!

Date:

Astronomy

Dec. 09, 2013 Rise Set
Actual Time 7:54 AM EST 5:20 PM EST
Civil Twilight 7:24 AM EST 5:50 PM EST
Nautical Twilight 6:50 AM EST 6:24 PM EST
Astronomical Twilight 6:18 AM EST 6:57 PM EST
Moon 12:48 PM EST (12/9) 12:08 AM EST (12/9)
Length of Visible Light 10h 25m
Length of Day
9h 25m
Waxing Crescent, 51% of the Moon is Illuminated
Dec 9
Waxing Crescent
Dec 17
Full
Dec 25
Last Quarter
Jan 1
New
Jan 7
First Quarter

Hourly Weather History & Observations

Time (EST) Temp. Windchill Dew Point Humidity Pressure Visibility Wind Dir Wind Speed Gust Speed Precip Events Conditions
12:29 AM 28.9 °F 22.8 °F 27.0 °F 92% 29.98 in 7.0 mi SW 5.8 mph - N/A   Overcast
12:53 AM 28.9 °F 21.1 °F 27.0 °F 92% 30.01 in 9.0 mi WSW 8.1 mph - N/A   Overcast
1:53 AM 28.9 °F 20.4 °F 27.0 °F 92% 30.01 in 5.0 mi WSW 9.2 mph 17.3 mph N/A   Overcast
2:53 AM 28.0 °F 16.5 °F 26.1 °F 92% 30.02 in 5.0 mi West 15.0 mph 21.9 mph N/A   Overcast
3:07 AM 28.0 °F 18.1 °F 25.0 °F 88% 30.00 in 1.8 mi West 11.5 mph 20.7 mph 0.00 in Snow Light Snow
3:14 AM 28.0 °F 19.3 °F 25.0 °F 88% 30.00 in 3.0 mi West 9.2 mph 19.6 mph 0.00 in Snow Light Snow
3:25 AM 28.0 °F 20.0 °F 25.0 °F 88% 30.01 in 10.0 mi WSW 8.1 mph 16.1 mph 0.00 in   Overcast
3:53 AM 28.0 °F 20.0 °F 24.1 °F 85% 30.04 in 7.0 mi West 8.1 mph 17.3 mph 0.00 in   Overcast
4:53 AM 26.1 °F 15.6 °F 21.9 °F 84% 30.05 in 10.0 mi West 11.5 mph 19.6 mph N/A   Overcast
5:04 AM 26.1 °F 17.6 °F 21.9 °F 84% 30.03 in 10.0 mi West 8.1 mph 18.4 mph N/A   Overcast
5:53 AM 26.1 °F 15.6 °F 21.9 °F 84% 30.08 in 10.0 mi West 11.5 mph 18.4 mph N/A   Overcast
6:53 AM 26.1 °F 15.0 °F 21.0 °F 81% 30.09 in 9.0 mi West 12.7 mph 21.9 mph N/A   Overcast
7:53 AM 26.1 °F 16.8 °F 21.0 °F 81% 30.12 in 7.0 mi West 9.2 mph - N/A   Overcast
8:48 AM 24.8 °F 11.9 °F 19.4 °F 80% 30.11 in 6.0 mi West 16.1 mph 26.5 mph N/A   Haze
8:53 AM 25.0 °F 13.1 °F 19.9 °F 81% 30.15 in 7.0 mi West 13.8 mph 19.6 mph N/A   Overcast
9:11 AM 25.0 °F 14.8 °F 19.9 °F 81% 30.13 in 5.0 mi West 10.4 mph 20.7 mph N/A   Haze
9:34 AM 25.0 °F 14.8 °F 21.0 °F 85% 30.14 in 2.0 mi West 10.4 mph 23.0 mph 0.00 in Snow Light Snow
9:43 AM 25.0 °F 15.5 °F 19.9 °F 81% 30.14 in 1.5 mi West 9.2 mph 23.0 mph 0.00 in Snow Light Snow
9:53 AM 25.0 °F 13.1 °F 19.9 °F 81% 30.18 in 2.0 mi West 13.8 mph 20.7 mph 0.00 in Snow Light Snow
10:06 AM 24.1 °F 13.7 °F 19.0 °F 81% 30.16 in 4.0 mi WSW 10.4 mph 19.6 mph 0.00 in   Haze
10:18 AM 24.1 °F 15.2 °F 18.0 °F 77% 30.16 in 4.0 mi WSW 8.1 mph 17.3 mph 0.00 in   Haze
10:53 AM 25.0 °F 17.1 °F 17.1 °F 72% 30.17 in 7.0 mi West 6.9 mph - 0.00 in   Overcast
11:53 AM 25.0 °F 13.6 °F 17.1 °F 72% 30.19 in 10.0 mi West 12.7 mph 20.7 mph N/A   Overcast
12:53 PM 25.0 °F 13.6 °F 17.1 °F 72% 30.20 in 10.0 mi WSW 12.7 mph 21.9 mph N/A   Overcast
1:53 PM 25.0 °F 12.2 °F 16.0 °F 69% 30.20 in 10.0 mi WNW 16.1 mph - N/A   Scattered Clouds
2:53 PM 24.1 °F 12.0 °F 15.1 °F 69% 30.21 in 10.0 mi West 13.8 mph 20.7 mph N/A   Clear
3:53 PM 23.0 °F 10.6 °F 14.0 °F 68% 30.22 in 10.0 mi West 13.8 mph 20.7 mph N/A   Partly Cloudy
4:53 PM 23.0 °F 11.7 °F 14.0 °F 68% 30.23 in 10.0 mi West 11.5 mph - N/A   Partly Cloudy
5:53 PM 21.9 °F 12.5 °F 12.9 °F 68% 30.25 in 10.0 mi West 8.1 mph - N/A   Clear
6:53 PM 21.0 °F 12.4 °F 12.9 °F 71% 30.27 in 10.0 mi West 6.9 mph - N/A   Clear
7:53 PM 21.0 °F 13.4 °F 12.9 °F 71% 30.26 in 10.0 mi Variable 5.8 mph - N/A   Partly Cloudy
8:53 PM 21.0 °F 11.4 °F 14.0 °F 74% 30.24 in 10.0 mi West 8.1 mph - N/A   Mostly Cloudy
9:53 PM 19.9 °F 11.1 °F 12.9 °F 74% 30.24 in 10.0 mi West 6.9 mph - N/A   Overcast
10:53 PM 19.9 °F 9.3 °F 12.9 °F 74% 30.25 in 10.0 mi WNW 9.2 mph - N/A   Overcast
11:49 PM 19.4 °F 10.4 °F 12.2 °F 74% 30.21 in 2.5 mi NW 6.9 mph - 0.00 in Snow Light Snow
11:53 PM 19.9 °F 12.1 °F 12.9 °F 74% 30.25 in 2.5 mi NW 5.8 mph - 0.00 in Snow Light Snow